Flag for Norway Weather past 2 weeks in Stavanger, Norway

Now
64 °F

Partly sunny.


Feels Like: 64 °F
Forecast: 57 / 65 °F
Wind: 9 mph from Southeast

Location: Stavanger / Sola

Current Time: Aug 3, 2015 at 1:11:18 PM

Latest Report: Aug 3, 2015 at 12:20 PM


Visibility: N/A

Pressure: 30.04 "Hg

Humidity: 49%

Dew point: 45 °F

Location of StavangerLocation

Historic Weather in Stavanger — Graph

°F

Stavanger temperature yesterday

Maximum temperature yesterday: 61 °F (at 11:50 AM)
Minimum temperature yesterday: 50 °F (at 3:50 AM)
Average temperature yesterday: 57 °F

Past Weeks' High & Low Weather Summary

 TemperatureHumidityPressure
High66 °F (Jul 29, 3:50 PM)100% (Jul 20, 12:50 AM)30.12 "Hg (Jul 20, 12:50 AM)
Low48 °F (Jul 27, 5:50 AM)49% (Aug 3, 11:50 AM)29.39 "Hg (Jul 29, 9:20 AM)
Average57 °F81%29.74 "Hg
* Reported Jul 19 11:20 AM — Aug 3 11:50 AM, Stavanger, Weather by CustomWeather, © 2015

Note: Actual official high and low records may vary slightly from our data, if they occured in-between our weather recording intervals... More about our weather records

Advertising

Stavanger weather history for previous 24 hours

 ConditionsComfort  
Time TempWeatherWind HumidityBarometerVisibility
11:50 AM
Mon, Aug 3
64 °FPartly sunny.13 mph49%30.07 "HgN/A
11:20 AM63 °FBroken clouds.7 mph56%30.04 "HgN/A
10:50 AM61 °FBroken clouds.6 mph63%30.07 "HgN/A
10:20 AM59 °FBroken clouds.5 mph63%30.07 "HgN/A
9:50 AM59 °FBroken clouds.6 mph72%30.07 "HgN/A
9:20 AM57 °FScattered clouds.5 mph72%30.07 "HgN/A
8:50 AM55 °FPartly sunny.3 mph82%30.09 "HgN/A
8:20 AM54 °FBroken clouds.2 mph88%30.07 "HgN/A
7:50 AM54 °FPartly sunny.2 mph88%30.07 "HgN/A
7:20 AM52 °FBroken clouds.6 mph94%30.07 "HgN/A
6:50 AM52 °FPartly sunny.3 mph88%30.07 "HgN/A
6:20 AM52 °FClear.6 mph88%30.07 "Hg10 mi
5:50 AM52 °FClear.6 mph88%30.09 "Hg10 mi
4:50 AM50 °FClear.5 mph94%30.09 "Hg10 mi
3:50 AM50 °FClear.6 mph94%30.09 "Hg10 mi
2:50 AM50 °FClear.No wind94%30.12 "Hg10 mi
1:50 AM50 °FClear.1 mph94%30.12 "Hg10 mi
12:50 AM52 °FPassing clouds.2 mph88%30.12 "HgN/A
11:50 PM
Sun, Aug 2
52 °FPassing clouds.1 mph88%30.12 "HgN/A
11:20 PM52 °FPassing clouds.No wind88%30.12 "HgN/A
10:50 PM54 °FPassing clouds.1 mph82%30.12 "HgN/A
10:20 PM55 °FPassing clouds.No wind82%30.12 "HgN/A
9:50 PM57 °FPassing clouds.1 mph77%30.09 "HgN/A
9:20 PM57 °FPassing clouds.2 mph77%30.09 "HgN/A
8:50 PM59 °FPassing clouds.5 mph72%30.09 "HgN/A
8:20 PM59 °FPassing clouds.6 mph72%30.09 "HgN/A
7:50 PM59 °FPassing clouds.7 mph72%30.09 "HgN/A
7:20 PM59 °FPassing clouds.6 mph72%30.09 "HgN/A
6:50 PM61 °FScattered clouds.6 mph68%30.09 "HgN/A
6:20 PM61 °FScattered clouds.6 mph68%30.09 "HgN/A
5:50 PM59 °FScattered clouds.8 mph72%30.09 "HgN/A
5:20 PM61 °FScattered clouds.10 mph72%30.09 "HgN/A
4:50 PM61 °FScattered clouds.12 mph77%30.07 "HgN/A
4:20 PM61 °FScattered clouds.12 mph72%30.07 "HgN/A
3:50 PM61 °FScattered clouds.12 mph72%30.07 "HgN/A
3:20 PM61 °FScattered clouds.14 mph72%30.07 "HgN/A
2:50 PM61 °FScattered clouds.15 mph72%30.07 "HgN/A
2:20 PM61 °FScattered clouds.14 mph72%30.07 "HgN/A
1:50 PM61 °FScattered clouds.13 mph72%30.04 "HgN/A
1:20 PM61 °FScattered clouds.14 mph72%30.04 "HgN/A
Weather by CustomWeather, © 2015

See weather overviewHow to use our weather pages